Weather History for Alexandria, MN

Change the Weather History Date:

Monday, October 1, 2012

  Actual Average Record
Temperature  
Mean Temperature 58 °F -  
Max Temperature 68 °F 64 °F 85 °F (1951)
Min Temperature 50 °F 42 °F 26 °F (1974)
Degree Days  
Heating Degree Days 7    
Growing Degree Days 8 (Base 50)    
Moisture  
Dew Point 37 °F    
Average Humidity 48    
Maximum Humidity 69    
Minimum Humidity 25    
Precipitation  
Precipitation 0.00 in - - ()
Sea Level Pressure  
Sea Level Pressure 30.00 in    
Wind  
Wind Speed 12 mph (NNW)    
Max Wind Speed 23 mph    
Max Gust Speed 29 mph    
Visibility 10 miles    
Events      
Averages and records for this station are not official NWS values.
T = Trace of Precipitation, MM = Missing Value Source: NWS Daily Summary

Daily Weather History Graph

Daily Weather History Graph

Search for Another Location

Airport:

Trip Planner

Search our weather history database for the weather conditions in past years. The results will help you decide how hot, cold, wet, or windy it might be!

Date:

Astronomy

Oct. 01, 2012 Rise Set
Actual Time 7:20 AM CDT 7:00 PM CDT
Civil Twilight 6:50 AM CDT 7:30 PM CDT
Nautical Twilight 6:16 AM CDT 8:04 PM CDT
Astronomical Twilight 5:41 AM CDT 8:39 PM CDT
Moon 7:29 PM CDT (10/1) 8:58 AM CDT (10/1)
Length of Visible Light 12h 39m
Length of Day
11h 40m
Full, 98% of the Moon is Illuminated
Oct 1
Full
Oct 8
Last Quarter
Oct 15
New
Oct 21
First Quarter
Oct 29
Full

Hourly Weather History & Observations

Time (CDT) Temp. Dew Point Humidity Pressure Visibility Wind Dir Wind Speed Gust Speed Precip Events Conditions
1:53 AM 64.0 °F 48.0 °F 56% 29.89 in 10.0 mi NNW 10.4 mph - N/A   Scattered Clouds
2:53 AM 62.1 °F 48.0 °F 60% 29.91 in 10.0 mi NNW 10.4 mph - N/A   Scattered Clouds
5:53 AM 57.0 °F 45.0 °F 64% 29.96 in 10.0 mi NNW 15.0 mph - N/A   Clear
6:53 AM 54.0 °F 44.1 °F 69% 29.98 in 10.0 mi NNW 12.7 mph - N/A   Clear
7:53 AM 53.1 °F 43.0 °F 69% 30.00 in 10.0 mi NNW 11.5 mph - N/A   Clear
8:53 AM 55.0 °F 43.0 °F 64% 30.01 in 10.0 mi NNW 15.0 mph 20.7 mph N/A   Clear
9:53 AM 57.9 °F 42.1 °F 56% 30.03 in 10.0 mi NNW 15.0 mph 25.3 mph N/A   Mostly Cloudy
10:53 AM 63.0 °F 41.0 °F 45% 30.03 in 10.0 mi North 18.4 mph 25.3 mph N/A   Clear
11:53 AM 63.0 °F 37.9 °F 40% 30.04 in 10.0 mi North 23.0 mph 28.8 mph N/A   Clear
12:53 PM 64.9 °F 36.0 °F 34% 30.02 in 10.0 mi North 17.3 mph - N/A   Clear
1:53 PM 66.0 °F 34.0 °F 30% 30.01 in 10.0 mi NNW 19.6 mph 25.3 mph N/A   Clear
3:53 PM 66.9 °F 30.9 °F 26% 30.00 in 10.0 mi North 17.3 mph 28.8 mph N/A   Clear
5:53 PM 64.9 °F 28.0 °F 25% 30.01 in 10.0 mi NNW 12.7 mph - N/A   Clear
6:53 PM 61.0 °F 28.9 °F 30% 30.02 in 10.0 mi NNW 8.1 mph - N/A   Clear
7:53 PM 55.9 °F 28.9 °F 36% 30.03 in 10.0 mi NW 6.9 mph - N/A   Clear
8:53 PM 52.0 °F 30.9 °F 45% 30.04 in 10.0 mi NNW 5.8 mph - N/A   Clear
9:53 PM 50.0 °F 33.1 °F 52% 30.03 in 10.0 mi NNW 5.8 mph - N/A   Clear
10:53 PM 50.0 °F 33.1 °F 52% 30.03 in 10.0 mi North 3.5 mph - N/A   Clear
11:53 PM 50.0 °F 32.0 °F 50% 30.01 in 10.0 mi Calm Calm - N/A   Clear